Regional Weather Roundup
Issued by NWS

Home | Current Version | Previous Version | Text Only | Print | Product List | Glossary On
Versions: 1 2 3 4 5 6 7 8 9 10 11 12 13 14 15 16 17 18 19 20 21 22 23 24 25 26 27
000
ASUS46 KPQR 231110
RWROR

OREGON REGIONAL WEATHER ROUNDUP
NATIONAL WEATHER SERVICE PORTLAND OR
400 AM PDT FRI JUN 23 2017

NOTE: "FAIR" INDICATES FEW OR NO CLOUDS BELOW 12,000 FEET WITH
NO SIGNIFICANT WEATHER AND/OR OBSTRUCTIONS TO VISIBILITY.

ORZ001>013-231200-
NORTHWEST OREGON


CITY           SKY/WX    TMP DP  RH WIND       PRES   REMARKS
ASTORIA        CLEAR     50  47  89 CALM      30.18F
NEWPORT        CLEAR     48  46  93 CALM      30.13F
PORTLAND       CLEAR     61  40  45 NW3       30.15S
VANCOUVER WA   NOT AVBL
SCAPPOOSE      CLEAR     64  41  42 N7        30.14F
HILLSBORO      CLEAR     57  44  62 NW3       30.13F
AURORA         CLEAR     60  42  51 NE6       30.14S
MCMINNVILLE    CLEAR     61  39  44 N6        30.13F
SALEM          CLEAR     58  42  55 N7        30.11F
CORVALLIS      CLEAR     54  41  62 CALM      30.11F
EUGENE         CLEAR     54  43  66 N9        30.10S
$$

ORZ021-028-231200-
SOUTHWEST OREGON


CITY           SKY/WX    TMP DP  RH WIND       PRES   REMARKS
NORTH BEND     CLEAR     52  52 100 N3        30.05F
BROOKINGS      CLEAR     84  46  26 NE15G22   29.84F
ROSEBURG       CLEAR     57  47  69 SE3       30.06S
SEXTON SUMMIT  CLEAR     61  36  39 NE10      30.12F
GRANTS PASS    FAIR      57  46  67 CALM      30.07S
MEDFORD        CLEAR     59  51  75 NE6       30.03S
$$

ORZ014>016-041-231200-
COLUMBIA GORGE


CITY           SKY/WX    TMP DP  RH WIND       PRES   REMARKS
TROUTDALE      CLEAR     56  51  84 CALM      30.14S
HOOD RIVER     CLEAR     52  43  71 S3        30.18S
THE DALLES     CLEAR     54  43  66 SE5       30.16S
$$

ORZ029>031-041-044-049-050-061>064-502-503-505>511-231200-
EASTERN OREGON


CITY           SKY/WX    TMP DP  RH WIND       PRES   REMARKS
MADRAS         CLEAR     43  32  65 SE3       30.22S
REDMOND        CLEAR     42  26  53 SE3       30.21F
BEND           CLEAR    N/A N/A N/A CALM      30.24S
PRINEVILLE     CLEAR     41  27  56 CALM      30.23S
KLAMATH FALLS  CLEAR     59  38  45 N10       30.18S
LAKEVIEW       CLEAR     54  30  40 N17       30.22F
HERMISTON      CLEAR     49  43  80 SE3       30.17R
PENDLETON      CLEAR     51  41  68 S6        30.19R
JOHN DAY       CLEAR     47  34  61 CALM      30.25R
MEACHAM        CLEAR     35  31  85 CALM      30.26S
LA GRANDE      CLEAR     46  34  61 NW7       30.22S
BAKER CITY     CLEAR     41  35  79 CALM      30.24R
BURNS          CLEAR     37  29  72 W7        30.23S WCI  32
ROME             N/A     46  29  51 E5        30.20S
ONTARIO        CLEAR     58  35  42 NW10      30.17S
$$




USA.gov is the U.S. government's official web portal to all federal, state and local government web resources and services.